FW7368 Weather Reports


Display with metric or nautical units.
time (UTC)temp
F
wind
direction
speed
MPH
gust
MPH
rain 1hr
in
rain 24hr
in
rain mn
in
humidity
%
barometer
mb
20260504022452 45 214 10.0 12.0 0.00 0.13 0.13 98 1005.1
20260504021949 45 224 5.0 9.0 0.00 0.13 0.13 98 1005.1
20260504021446 45 247 3.0 10.0 0.02 0.13 0.13 98 1005.3
20260504020943 45 244 9.0 10.0 0.07 0.13 0.13 97 1005.3
20260504020440 45 250 8.0 10.0 0.09 0.12 0.12 98 1005.3
20260504015937 45 219 5.0 12.0 0.07 0.11 0.11 98 1005.7
20260504015432 45 226 8.0 13.0 0.12 0.11 0.11 98 1005.7
20260504014928 45 242 12.0 16.0 0.12 0.10 0.10 98 1005.6
20260504014425 45 239 11.0 18.0 0.09 0.09 0.09 97 1005.7
20260504013922 45 226 9.0 23.0 0.09 0.08 0.08 96 1005.5
20260504013420 45 229 7.0 25.0 0.09 0.07 0.07 95 1005.5
20260504012916 46 245 11.0 20.0 0.07 0.06 0.06 95 1005.2
20260504012414 46 221 9.0 25.0 0.02 0.06 0.06 93 1005.4
20260504011911 46 236 9.0 20.0 0.02 0.05 0.05 93 1005.2
20260504011408 46 233 13.0 19.0 0.05 0.05 0.05 92 1005.2
20260504010904 46 228 12.0 21.0 0.02 0.05 0.05 93 1005.0
20260504010355 46 235 9.0 20.0 0.00 0.04 0.04 92 1005.0
20260504005851 46 239 9.0 19.0 0.00 0.04 0.04 90 1004.9
20260504005348 46 245 10.0 14.0 0.00 0.04 0.04 91 1005.0
20260504004845 46 239 12.0 15.0 0.00 0.04 0.04 92 1005.0
20260504004343 45 223 8.0 18.0 0.00 0.04 0.04 92 1005.0
20260504003839 45 250 13.0 16.0 0.00 0.04 0.04 94 1004.7
20260504003336 45 218 12.0 16.0 0.00 0.04 0.04 95 1005.0
20260504002833 45 197 7.0 11.0 0.00 0.04 0.04 96 1005.1
20260504002329 45 212 9.0 14.0 0.00 0.04 0.04 96 1005.0
20260504001827 44 218 9.0 15.0 0.00 0.04 0.04 96 1004.9
20260504001324 44 250 9.0 13.0 0.00 0.04 0.04 96 1005.0
20260504000821 44 243 5.0 9.0 0.00 0.04 0.04 97 1005.1
20260504000318 44 211 6.0 10.0 0.00 0.04 0.04 97 1005.1
20260503235816 44 189 7.0 15.0 0.00 0.04 0.04 96 1005.0
20260503235313 44 210 8.0 9.0 0.00 0.04 0.04 97 1004.9
20260503234810 44 208 7.0 18.0 0.00 0.04 0.04 97 1005.0
20260503234308 44 241 12.0 15.0 0.00 0.04 0.04 97 1005.2
20260503233806 44 217 8.0 23.0 0.02 0.04 0.04 96 1004.9
20260503233301 44 202 9.0 19.0 0.07 0.04 0.04 97 1005.2
20260503232758 44 175 7.0 14.0 0.05 0.04 0.04 97 1004.9
20260503232256 44 208 8.0 17.0 0.00 0.03 0.03 97 1005.0
20260503231754 44 191 9.0 11.0 0.00 0.03 0.03 96 1005.2
20260503231250 44 252 11.0 15.0 0.00 0.03 0.03 96 1005.2
20260503230746 44 195 7.0 13.0 0.00 0.03 0.03 96 1005.2
20260503230244 44 231 7.0 19.0 0.00 0.03 0.03 96 1005.4
20260503225741 44 211 17.0 27.0 0.02 0.03 0.03 95 1005.4
20260503225241 44 230 21.0 26.0 0.02 0.03 0.03 95 1005.6
20260503224738 44 224 7.0 15.0 0.02 0.03 0.03 94 1005.4
20260503224236 44 244 6.0 12.0 0.02 0.03 0.03 94 1005.4
20260503223733 44 221 12.0 13.0 0.02 0.02 0.02 93 1005.4
20260503223231 44 212 6.0 11.0 0.05 0.02 0.02 93 1005.6
20260503222727 44 228 7.0 13.0 0.02 0.02 0.02 91 1005.7
20260503222225 44 225 5.0 11.0 0.05 0.02 0.02 90 1005.7
20260503221723 44 236 4.0 9.0 0.05 0.01 0.01 89 1005.7
20260503221221 45 241 7.0 11.0 0.05 0.01 0.01 87 1005.7
20260503220717 45 245 7.0 11.0 0.02 0.00 0.00 84 1005.7
20260503220214 46 226 9.0 14.0 0.00 0.00 0.00 82 1005.7
20260503215710 46 247 7.0 11.0 0.00 0.00 0.00 80 1005.7
20260503215207 47 247 11.0 17.0 0.00 0.00 0.00 79 1005.7
20260503214705 47 202 6.0 22.0 0.00 0.00 0.00 77 1005.7
20260503214201 48 221 12.0 22.0 0.00 0.00 0.00 71 1005.7
20260503213700 49 233 10.0 26.0 0.00 0.00 0.00 67 1005.6
20260503213157 50 217 11.0 24.0 0.00 0.00 0.00 64 1005.4
20260503212654 51 223 18.0 22.0 0.00 0.00 0.00 60 1005.4
20260503212151 51 222 15.0 28.0 0.00 0.00 0.00 58 1005.0
20260503211649 52 235 17.0 22.0 0.00 0.00 0.00 56 1005.1
20260503211144 51 229 13.0 26.0 0.00 0.00 0.00 54 1005.2
20260503210636 52 230 14.0 20.0 0.00 0.00 0.00 53 1005.2
20260503210132 52 234 13.0 16.0 0.00 0.00 0.00 50 1005.0
20260503205622 52 227 15.0 25.0 0.00 0.00 0.00 48 1005.3
20260503205119 53 180 4.0 13.0 0.00 0.00 0.00 48 1005.4
20260503204616 51 212 8.0 17.0 0.00 0.00 0.00 47 1005.3
20260503204113 52 245 4.0 15.0 0.00 0.00 0.00 47 1005.3
20260503203609 52 221 7.0 20.0 0.00 0.00 0.00 46 1005.2
20260503203107 52 221 7.0 17.0 0.00 0.00 0.00 46 1005.3
20260503202605 52 190 11.0 24.0 0.00 0.00 0.00 45 1005.5
20260503202102 53 247 7.0 20.0 0.00 0.00 0.00 47 1005.3
20260503201600 54 244 5.0 11.0 0.00 0.00 0.00 45 1005.4
20260503201058 52 138 3.0 7.0 0.00 0.00 0.00 49 1005.3
20260503200554 52 306 3.0 7.0 0.00 0.00 0.00 50 1005.5
20260503200050 50 356 1.0 6.0 0.00 0.00 0.00 52 1005.8
20260503195548 50 202 6.0 15.0 0.00 0.00 0.00 52 1006.0
20260503195044 50 235 14.0 18.0 0.00 0.00 0.00 51 1006.1
20260503194542 50 252 8.0 19.0 0.00 0.00 0.00 50 1006.3
20260503194041 51 261 15.0 17.0 0.00 0.00 0.00 47 1006.2
20260503193538 51 257 11.0 17.0 0.00 0.00 0.00 48 1006.4
20260503193033 52 253 12.0 17.0 0.00 0.00 0.00 50 1006.5
20260503192530 51 251 19.0 25.0 0.00 0.00 0.00 48 1006.6
20260503192026 51 265 8.0 23.0 0.00 0.00 0.00 46 1006.8
20260503191523 52 197 5.0 17.0 0.00 0.00 0.00 44 1006.7
20260503191019 52 229 15.0 20.0 0.00 0.00 0.00 43 1006.8
20260503190516 53 262 9.0 15.0 0.00 0.00 0.00 43 1006.9
20260503190014 51 230 19.0 22.0 0.00 0.00 0.00 42 1006.8
20260503185510 52 257 11.0 21.0 0.00 0.00 0.00 42 1007.0
20260503185009 52 225 6.0 17.0 0.00 0.00 0.00 43 1006.8
20260503184506 51 212 10.0 18.0 0.00 0.00 0.00 44 1007.1
20260503184002 52 222 11.0 16.0 0.00 0.00 0.00 43 1007.2
20260503183459 52 241 7.0 18.0 0.00 0.00 0.00 45 1006.9
20260503182956 50 197 6.0 16.0 0.00 0.00 0.00 45 1006.9
20260503182455 51 216 9.0 21.0 0.00 0.00 0.00 46 1006.9
20260503181952 52 217 6.0 14.0 0.00 0.00 0.00 49 1007.3
20260503181449 51 228 6.0 11.0 0.00 0.00 0.00 49 1007.3
20260503180944 51 238 11.0 20.0 0.00 0.00 0.00 48 1007.1
20260503180443 50 262 8.0 19.0 0.00 0.00 0.00 49 1007.3
20260503175940 50 181 6.0 15.0 0.00 0.00 0.00 49 1007.4
20260503175438 51 192 3.0 9.0 0.00 0.00 0.00 49 1007.5
20260503174938 50 231 11.0 20.0 0.00 0.00 0.00 49 1007.3
20260503174437 50 239 15.0 21.0 0.00 0.00 0.00 48 1007.5
20260503173932 51 238 5.0 17.0 0.00 0.00 0.00 46 1007.3
20260503173428 52 179 5.0 14.0 0.00 0.00 0.00 47 1007.3
20260503172925 50 272 9.0 13.0 0.00 0.00 0.00 46 1007.7
20260503172423 51 254 15.0 22.0 0.00 0.00 0.00 45 1007.8
20260503171919 51 251 12.0 16.0 0.00 0.00 0.00 46 1007.5
20260503171416 50 288 6.0 15.0 0.00 0.00 0.00 45 1008.0
20260503170913 50 251 10.0 19.0 0.00 0.00 0.00 46 1007.9
20260503170409 49 232 10.0 17.0 0.00 0.00 0.00 46 1008.0
20260503150801 46 217 7.0 17.0 0.00 0.00 0.00 42 1009.0
20260503150257 47 235 10.0 12.0 0.00 0.00 0.00 42 1009.1
20260503140222 45 198 6.0 11.0 0.00 0.00 0.00 46 1009.5
20260503131151 43 274 4.0 7.0 0.00 0.00 0.00 53 1010.0
20260503130649 42 269 3.0 8.0 0.00 0.00 0.00 54 1010.0
20260503130146 42 281 7.0 8.0 0.00 0.00 0.00 54 1010.0
20260503120112 38 250 4.0 6.0 0.00 0.00 0.00 59 1010.0
20260503110539 34 195 3.0 3.0 0.00 0.00 0.00 60 1010.0
20260503090426 33 204 2.0 5.0 0.00 0.00 0.00 67 1010.3
20260503081347 33 237 3.0 4.0 0.00 0.00 0.00 65 1010.3
20260503080843 33 232 3.0 5.0 0.00 0.00 0.00 64 1010.5
20260503080341 33 228 2.0 5.0 0.00 0.00 0.00 63 1010.1
20260503072817 33 249 3.0 5.0 0.00 0.00 0.00 66 1010.3
20260503072314 33 253 1.0 4.0 0.00 0.00 0.00 66 1010.4
20260503071810 33 253 3.0 3.0 0.00 0.00 0.00 66 1010.2
20260503071308 33 257 2.0 3.0 0.00 0.00 0.00 67 1010.4
20260503070803 33 316 3.0 3.0 0.00 0.00 0.00 67 1010.3
20260503070302 33 273 3.0 4.0 0.00 0.00 0.00 67 1010.4
20260503060227 33 341 2.0 4.0 0.00 0.00 0.00 67 1010.8
20260503054713 33 289 4.0 5.0 0.00 0.00 0.00 67 1011.0
20260503054211 33 335 3.0 5.0 0.00 0.00 0.00 67 1011.1
20260503053709 33 311 2.0 4.0 0.00 0.00 0.00 67 1011.0
20260503053207 33 309 3.0 5.0 0.00 0.00 0.00 66 1011.0
20260503052703 33 337 3.0 5.0 0.00 0.00 0.00 66 1011.0
20260503052159 33 318 3.0 4.0 0.00 0.00 0.00 66 1011.1
20260503051655 33 284 3.0 4.0 0.00 0.00 0.00 67 1011.2
20260503051153 33 280 4.0 5.0 0.00 0.00 0.00 67 1011.3
20260503050649 33 272 3.0 4.0 0.00 0.00 0.00 68 1011.3
20260503050146 33 259 3.0 4.0 0.00 0.00 0.00 68 1011.3
20260503045643 33 280 3.0 4.0 0.00 0.00 0.00 68 1011.3
20260503045140 34 281 3.0 5.0 0.00 0.00 0.00 69 1011.5
20260503044637 34 263 4.0 5.0 0.00 0.00 0.00 69 1011.2
20260503044135 34 232 3.0 5.0 0.00 0.00 0.00 69 1011.4
20260503043631 34 255 4.0 5.0 0.00 0.00 0.00 69 1011.5
20260503043128 34 253 2.0 4.0 0.00 0.00 0.00 69 1011.5
20260503042624 34 283 2.0 4.0 0.00 0.00 0.00 69 1011.4
20260503042120 34 222 3.0 4.0 0.00 0.00 0.00 69 1011.5
20260503041617 35 245 2.0 5.0 0.00 0.00 0.00 68 1011.5
20260503041115 35 229 3.0 6.0 0.00 0.00 0.00 69 1011.5
20260503040612 35 262 3.0 5.0 0.00 0.00 0.00 69 1011.6
20260503040110 34 253 3.0 5.0 0.00 0.00 0.00 71 1011.3
20260503035606 35 248 3.0 5.0 0.00 0.00 0.00 70 1011.3
20260503035104 35 242 4.0 6.0 0.00 0.00 0.00 70 1011.2
20260503034601 35 224 3.0 8.0 0.00 0.00 0.00 71 1011.4
20260503034058 35 234 4.0 4.0 0.00 0.00 0.00 71 1011.6
20260503033555 35 242 4.0 5.0 0.00 0.00 0.00 70 1011.5
20260503033053 35 251 4.0 6.0 0.00 0.00 0.00 70 1011.5
20260503032551 35 232 2.0 4.0 0.00 0.00 0.00 70 1011.6
20260503032049 35 223 3.0 5.0 0.00 0.00 0.00 70 1011.3
20260503031546 35 249 3.0 5.0 0.00 0.00 0.00 70 1011.5
20260503031043 36 248 3.0 6.0 0.00 0.00 0.00 69 1011.6
20260503030539 36 243 6.0 7.0 0.00 0.00 0.00 69 1011.4
20260503030037 36 228 3.0 6.0 0.00 0.00 0.00 68 1011.5
20260503025533 36 235 5.0 6.0 0.00 0.00 0.00 69 1011.4
20260503025031 36 242 4.0 5.0 0.00 0.00 0.00 69 1011.5
20260503024527 36 232 5.0 6.0 0.00 0.00 0.00 69 1011.7
20260503024025 36 253 4.0 8.0 0.00 0.00 0.00 68 1011.7
20260503023521 36 232 3.0 5.0 0.00 0.00 0.00 68 1011.7
20260503023019 37 244 6.0 6.0 0.00 0.00 0.00 68 1011.6